Regional Weather Roundup
Issued by NWS

Home | Current Version | Previous Version | Graphics & Text | Print | Product List | Glossary On
Versions: 1 2 3 4 5 6 7 8 9 10 11 12 13 14 15 16 17 18 19 20 21 22 23 24 25 26 27
000
ASUS45 KTFX 272010
RWRMT
MONTANA REGIONAL WEATHER ROUNDUP
NATIONAL WEATHER SERVICE GREAT FALLS MT
200 PM MDT SAT AUG 27 2016

NOTE: "FAIR" INDICATES FEW OR NO CLOUDS BELOW 12000 FEET WITH NO
SIGNIFICANT WEATHER AND/OR OBSTRUCTIONS TO VISIBILITY.

MTZ001>007-043-272100-
WEST OF THE DIVIDE

CITY           SKY/WX    TMP DP  RH WIND       PRES   REMARKS
KALISPELL      PTSUNNY   83  39  21 SW17G25   29.73F
MISSOULA       MOSUNNY   83  37  19 SW5       29.82F
BUTTE          SUNNY     75  30  19 NW12G18   29.96F
MULLAN PASS    SUNNY     65  38  36 SW9G22    29.97S
DEER LODGE       N/A     79  34  19 W6        29.91F
EUREKA           N/A     79  39  24 S13G20    29.70F
HAMILTON         N/A     79  36  21 W6G20     29.86F
LIBBY            N/A     81  39  22 NE6       29.73F
PLAINS           N/A     82  45  27 W5        29.79F
RONAN            N/A     82  38  20 SW7       29.86F
$$

MTZ008-052>055-272100-
SOUTHWEST MONTANA

CITY           SKY/WX    TMP DP  RH WIND       PRES   REMARKS
BOZEMAN        CLOUDY    80  39  23 N5        29.90F
DILLON         SUNNY     78  28  16 SW10G24   29.95F
W YELLOWSTONE  CLOUDY    68  27  21 SW17G28   30.11S
ENNIS          SUNNY     79  21  11 SW15      30.01S
THREE FORKS      N/A     81  81 100 SW7       29.90F HX  92
TWIN BRIDGES     N/A     79  29  16 SE15      29.94F
$$

MTZ009-010-012-014-046-048-049-054-272100-
EAST SLOPES AND CENTRAL MONTANA

CITY           SKY/WX    TMP DP  RH WIND       PRES   REMARKS
CUT BANK       CLOUDY    74  37  26 W28G37    29.75R
GREAT FALLS    CLOUDY    82  35  18 SW21G30   29.77F
MALMSTROM AFB  CLOUDY    79  37  21 MISG      29.77F
HELENA         SUNNY     84  35  17 NW14G28   29.83F
CHOTEAU          N/A     79  39  24 W15       29.79S
$$

MTZ011-013-016-021-045-047-050-051-272100-
NORTH CENTRAL MONTANA

CITY           SKY/WX    TMP DP  RH WIND       PRES   REMARKS
HAVRE          CLOUDY    86  38  18 W16G24    29.68F
LEWISTOWN      MOSUNNY   79  36  21 W9        29.84S
N BAR RANCH      N/A     79  34  19 N10G18    29.87F
CHINOOK          N/A     82  41  23 SW13      29.69F
$$

MTZ017>020-022>027-061-062-272100-
NORTHEAST MONTANA

CITY           SKY/WX    TMP DP  RH WIND       PRES   REMARKS
GLASGOW        SUNNY     79  44  28 S12G23    29.76F
JORDAN           N/A     82  38  20 SW10      29.78F
WOLF POINT     SUNNY     83  44  25 S7        29.78F
POPLAR           N/A     81  43  26 S12G18    29.80F
SCOBEY           N/A     78  41  26 S8        29.81F
$$

MTZ028>42-056>058-272100-
SOUTHCENTRAL AND SOUTHEAST MONTANA

CITY           SKY/WX    TMP DP  RH WIND       PRES   REMARKS
BAKER          MOSUNNY   78  47  33 S15       29.89F
BILLINGS       CLOUDY    80  37  21 SW13      29.87F
LIVINGSTON     CLOUDY    83  32  16 W20G25    29.88F
MILES CITY     SUNNY     84  42  22 SW12G17   29.82F
FORSYTH          N/A     81  39  22 S10G16    29.82F
LAUREL           N/A     79  41  25 SE2       29.88F
ROUNDUP          N/A     81  35  19 SW14      29.77F
$$

REGIONAL REPORTS...DAKOTAS

CITY           SKY/WX    TMP DP  RH WIND       PRES   REMARKS
WILLISTON      SUNNY     78  42  27 S9G17     29.85F
MINOT          MOSUNNY   74  47  38 E6        29.87F
DICKINSON      SUNNY     76  38  25 VRB5      29.88F
CROSBY           N/A     77  39  25 SW13      29.87S
WATFORD CITY     N/A     75  45  33 CALM      29.87F
BISMARCK       SUNNY     78  49  35 SW10G17   29.91F
GRAND FORKS    MOSUNNY   69  61  75 S13       29.89F
FARGO          CLOUDY    72  61  68 S13       29.92F
BUFFALO SD       N/A     76  48  37 SE8       29.86F
RAPID CITY     SUNNY     79  55  43 SE13      29.93F
$$

REGIONAL REPORTS...WYOMING/IDAHO/WASHINGTON

CITY           SKY/WX    TMP DP  RH WIND       PRES   REMARKS
GILLETTE       SUNNY     82  30  15 VRB7      29.93F
SHERIDAN       SUNNY     83  38  20 NE6       29.90F
BUFFALO WY     CLOUDY    81  29  15 W10       29.97R
CODY           CLOUDY    72  34  25 SW5       29.98F
YELLOWSTONE LA   N/A     63  23  21 W9G22     30.20S
IDAHO FALLS    CLOUDY    77  31  18 SW15G23   30.04F
SALMON         SUNNY     73  36  25 NW7       29.90F
BOISE          MOSUNNY   85  32  15 N6        29.93F
SPOKANE        PTSUNNY   83  39  21 SW25G31   29.75F
$$

REGIONAL REPORTS...ALBERTA

CITY           SKY/WX    TMP DP  RH WIND       PRES   REMARKS
EDMONTON       CLOUDY    61  55  82 W6        29.60R
CALGARY        PTSUNNY   72  50  46 SW5       29.60S
LETHBRIDGE     CLOUDY    79  41  25 W22G29    29.64R
MEDICINE HAT   PTSUNNY   84  45  24 W18       29.59S
WATERTON GATE    N/A     66  43  42 SW14G20     N/A
MILK RIVER       N/A     77  39  25 SW17G25     N/A
ONEFOUR          N/A     82  37  20 SW12G18     N/A
$$

REGIONAL REPORTS...SASKATCHEWAN

CITY           SKY/WX    TMP DP  RH WIND       PRES   REMARKS
SWIFT CURRENT  PTSUNNY   77  45  31 S21G30    29.68F
REGINA         PTSUNNY   77  46  33 S8G20     29.78F
SASKATOON      PTSUNNY   75  50  41 S17G29    29.69F
CYPRESS HILLS    N/A     73  41  31 S9          N/A
VAL MARIE        N/A     81  39  22 S15G24      N/A
ROCKGLEN         N/A     75  39  27 S15G23      N/A
ASSINIBOIA       N/A     63  55  77 SW2         N/A
$$




USA.gov is the U.S. government's official web portal to all federal, state and local government web resources and services.